When you browse on this site, cookies collect data to enhance your experience and personalize the content and advertising you see.
Visit our Privacy Policy to learn more. By continuing to use the site, you agree to this use of cookies and data.
  • In Romania
  • List of Countries
  • For 7 days
  • Water Temperature
  • Satellite Maps
  • Weather Map
  • Weather Widgets
  • user-avatar
    Login

    Hourly Weather Maloe Svyatcovo

    Today, 23 April, Tuesday

    Time Temperature Precipitation Wind Pressure Humidity
    00:00 +8°C° 0 mm 2 mps 753 mmHg 71%
    01:00 +8°C° 0 mm 2 mps 753 mmHg 72%
    02:00 +7°C° 0 mm 2 mps 753 mmHg 73%
    03:00 +7°C° 0 mm 2 mps 753 mmHg 73%
    04:00 +7°C° 0 mm 2 mps 753 mmHg 73%
    05:00 +7°C° 0 mm 2 mps 753 mmHg 73%
    06:00 +9°C° 0 mm 2 mps 754 mmHg 67%
    07:00 +12°C° 0 mm 2 mps 754 mmHg 60%
    08:00 +14°C° 0 mm 2 mps 754 mmHg 54%
    09:00 +14°C° 0 mm 3 mps 754 mmHg 49%
    10:00 +17°C° 0 mm 3 mps 754 mmHg 44%
    11:00 +18°C° 0 mm 3 mps 754 mmHg 39%
    12:00 +18°C° 0 mm 3 mps 754 mmHg 38%
    13:00 +19°C° 0 mm 3 mps 753 mmHg 37%
    14:00 +19°C° 0 mm 3 mps 753 mmHg 36%
    15:00 +19°C° 0 mm 3 mps 753 mmHg 38%
    16:00 +19°C° 0 mm 2 mps 753 mmHg 41%
    17:00 +18°C° 0 mm 2 mps 752 mmHg 44%
    18:00 +16°C° 0 mm 2 mps 753 mmHg 50%
    19:00 +15°C° 0 mm 2 mps 753 mmHg 56%
    20:00 +13°C° 0 mm 2 mps 753 mmHg 62%
    21:00 +12°C° 0 mm 2 mps 753 mmHg 63%
    22:00 +10°C° 0 mm 2 mps 753 mmHg 65%
    23:00 +10°C° 0 mm 2 mps 753 mmHg 66%

    Tomorrow, 24 April, Wednesday

    Time Temperature Precipitation Wind Pressure Humidity
    00:00 +9°C° 0 mm 2 mps 753 mmHg 68%
    01:00 +9°C° 0 mm 2 mps 754 mmHg 69%
    02:00 +8°C° 0 mm 2 mps 754 mmHg 71%
    03:00 +8°C° 0 mm 2 mps 754 mmHg 72%
    04:00 +8°C° 0 mm 2 mps 754 mmHg 73%
    05:00 +8°C° 0 mm 2 mps 754 mmHg 74%
    06:00 +10°C° 0 mm 2 mps 754 mmHg 67%
    07:00 +13°C° 0 mm 2 mps 754 mmHg 59%
    08:00 +15°C° 0 mm 2 mps 754 mmHg 52%
    09:00 +17°C° 0 mm 2 mps 754 mmHg 48%
    10:00 +18°C° 0 mm 3 mps 754 mmHg 43%
    11:00 +19°C° 0 mm 3 mps 754 mmHg 39%
    12:00 +20°C° 0 mm 3 mps 754 mmHg 38%
    13:00 +20°C° 0 mm 3 mps 754 mmHg 37%
    14:00 +21°C° 0 mm 3 mps 753 mmHg 36%
    15:00 +21°C° 0 mm 2 mps 753 mmHg 38%
    16:00 +20°C° 0 mm 2 mps 753 mmHg 41%
    17:00 +20°C° 0 mm 2 mps 753 mmHg 43%
    18:00 +19°C° 0 mm 1 mps 753 mmHg 49%
    19:00 +16°C° 0 mm 1 mps 753 mmHg 54%
    20:00 +14°C° 0 mm 1 mps 753 mmHg 60%
    21:00 +13°C° 0 mm 1 mps 753 mmHg 61%
    22:00 +12°C° 0 mm 1 mps 753 mmHg 63%
    23:00 +12°C° 0 mm 1 mps 753 mmHg 64%

    Day after tomorrow, 25 April, Thursday

    Time Temperature Precipitation Wind Pressure Humidity
    00:00 +11°C° 0 mm 1 mps 753 mmHg 66%
    01:00 +10°C° 0 mm 0 mps 753 mmHg 67%
    02:00 +9°C° 0 mm 0 mps 753 mmHg 68%
    03:00 +9°C° 0 mm 0 mps 753 mmHg 68%
    04:00 +9°C° 0 mm 0 mps 753 mmHg 69%
    05:00 +9°C° 0 mm 0 mps 753 mmHg 69%
    06:00 +12°C° 0 mm 0 mps 753 mmHg 62%
    07:00 +14°C° 0 mm 0 mps 753 mmHg 56%
    08:00 +16°C° 0 mm 0 mps 753 mmHg 49%
    09:00 +18°C° 0 mm 0 mps 753 mmHg 45%
    10:00 +21°C° 0 mm 1 mps 753 mmHg 42%
    11:00 +23°C° 0 mm 1 mps 753 mmHg 38%
    12:00 +22°C° 0 mm 1 mps 752 mmHg 39%
    13:00 +22°C° 0 mm 1 mps 752 mmHg 41%
    14:00 +21°C° 0 mm 1 mps 752 mmHg 42%
    15:00 +21°C° 0 mm 1 mps 752 mmHg 45%
    16:00 +20°C° 0 mm 1 mps 751 mmHg 48%
    17:00 +17°C° 0 mm 0 mps 751 mmHg 51%
    18:00 +16°C° 0 mm 0 mps 751 mmHg 54%
    19:00 +15°C° 0 mm 0 mps 751 mmHg 57%
    20:00 +13°C° 0 mm 0 mps 751 mmHg 60%
    21:00 +13°C° 0 mm 0 mps 751 mmHg 62%
    22:00 +12°C° 0 mm 0 mps 751 mmHg 63%
    23:00 +12°C° 0 mm 0 mps 751 mmHg 65%

    26 April, Friday

    Time Temperature Precipitation Wind Pressure Humidity
    00:00 +11°C° 0 mm 0 mps 751 mmHg 67%
    01:00 +11°C° 0 mm 0 mps 751 mmHg 68%
    02:00 +11°C° 0 mm 0 mps 751 mmHg 70%
    03:00 +11°C° 0 mm 0 mps 751 mmHg 71%
    04:00 +11°C° 0 mm 0 mps 751 mmHg 72%
    05:00 +12°C° 0 mm 1 mps 751 mmHg 73%
    06:00 +13°C° 0 mm 1 mps 751 mmHg 68%
    07:00 +15°C° 0 mm 1 mps 751 mmHg 62%
    08:00 +18°C° 0 mm 1 mps 751 mmHg 56%
    09:00 +19°C° 0 mm 1 mps 751 mmHg 51%
    10:00 +19°C° 0 mm 2 mps 750 mmHg 46%
    11:00 +20°C° 0 mm 2 mps 750 mmHg 41%
    12:00 +20°C° 0 mm 2 mps 750 mmHg 43%
    13:00 +20°C° 0 mm 2 mps 750 mmHg 44%
    14:00 +19°C° 0 mm 2 mps 749 mmHg 46%
    15:00 +20°C° 0 mm 1 mps 749 mmHg 47%
    16:00 +20°C° 0 mm 1 mps 749 mmHg 49%
    17:00 +20°C° 0 mm 1 mps 749 mmHg 50%
    18:00 +18°C° 0 mm 1 mps 749 mmHg 55%
    19:00 +15°C° 0 mm 1 mps 748 mmHg 60%
    20:00 +14°C° 0 mm 1 mps 748 mmHg 65%
    21:00 +13°C° 0 mm 1 mps 748 mmHg 69%
    22:00 +13°C° 0 mm 1 mps 748 mmHg 72%
    23:00 +12°C° 0 mm 1 mps 748 mmHg 76%

    27 April, Saturday

    Time Temperature Precipitation Wind Pressure Humidity
    00:00 +12°C° 0 mm 1 mps 748 mmHg 77%
    01:00 +12°C° 0 mm 1 mps 747 mmHg 77%
    02:00 +11°C° 0 mm 0 mps 747 mmHg 78%
    03:00 +11°C° 0.6 mm 0 mps 747 mmHg 81%
    04:00 +10°C° 0.6 mm 0 mps 747 mmHg 85%
    05:00 +10°C° 0.6 mm 0 mps 746 mmHg 88%
    06:00 +11°C° 0.8 mm 1 mps 746 mmHg 89%
    07:00 +12°C° 0.8 mm 1 mps 746 mmHg 89%
    08:00 +12°C° 0.8 mm 2 mps 746 mmHg 89%
    09:00 +14°C° 0.1 mm 2 mps 745 mmHg 82%
    10:00 +15°C° 0.1 mm 2 mps 745 mmHg 75%
    11:00 +17°C° 0.1 mm 2 mps 745 mmHg 68%
    12:00 +18°C° 0.9 mm 2 mps 745 mmHg 63%
    13:00 +19°C° 0.9 mm 2 mps 744 mmHg 59%
    14:00 +20°C° 0.9 mm 2 mps 744 mmHg 54%
    15:00 +21°C° 1.1 mm 1 mps 744 mmHg 57%
    16:00 +20°C° 1.1 mm 1 mps 743 mmHg 61%
    17:00 +18°C° 1.1 mm 0 mps 743 mmHg 64%
    18:00 +16°C° 0 mm 0 mps 743 mmHg 69%
    19:00 +15°C° 0 mm 1 mps 743 mmHg 73%
    20:00 +14°C° 0 mm 1 mps 743 mmHg 78%
    21:00 +13°C° 0.1 mm 1 mps 743 mmHg 81%
    22:00 +12°C° 0.1 mm 1 mps 743 mmHg 83%
    23:00 +12°C° 0.1 mm 1 mps 743 mmHg 86%

    28 April, Sunday

    Time Temperature Precipitation Wind Pressure Humidity
    00:00 +11°C° 0 mm 1 mps 743 mmHg 87%
    01:00 +11°C° 0 mm 1 mps 743 mmHg 88%
    02:00 +9°C° 0 mm 0 mps 743 mmHg 90%
    03:00 +9°C° 0 mm 0 mps 743 mmHg 90%
    04:00 +9°C° 0 mm 0 mps 743 mmHg 90%
    05:00 +9°C° 0 mm 0 mps 743 mmHg 91%
    06:00 +11°C° 0 mm 0 mps 743 mmHg 85%
    07:00 +14°C° 0 mm 1 mps 743 mmHg 79%
    08:00 +16°C° 0 mm 1 mps 743 mmHg 73%
    09:00 +18°C° 0.2 mm 1 mps 743 mmHg 68%
    10:00 +20°C° 0.2 mm 1 mps 743 mmHg 62%
    11:00 +20°C° 0.2 mm 2 mps 743 mmHg 57%
    12:00 +20°C° 0.5 mm 2 mps 743 mmHg 56%
    13:00 +20°C° 0.5 mm 2 mps 743 mmHg 56%
    14:00 +20°C° 0.5 mm 2 mps 743 mmHg 56%
    15:00 +19°C° 0.4 mm 3 mps 743 mmHg 60%
    16:00 +19°C° 0.4 mm 3 mps 743 mmHg 65%
    17:00 +18°C° 0.4 mm 3 mps 743 mmHg 70%
    18:00 +16°C° 0.1 mm 3 mps 743 mmHg 77%
    19:00 +14°C° 0.1 mm 3 mps 743 mmHg 83%
    20:00 +14°C° 0.1 mm 2 mps 743 mmHg 90%
    21:00 +12°C° 0 mm 3 mps 744 mmHg 89%
    22:00 +11°C° 0 mm 3 mps 744 mmHg 88%
    23:00 +11°C° 0 mm 3 mps 744 mmHg 87%
    Show more